TimeEDT,TemperatureF,Dew PointF,Humidity,Sea Level PressureIn,VisibilityMPH,Wind Direction,Wind SpeedMPH,Gust SpeedMPH,PrecipitationIn,Events,Conditions,WindDirDegrees,DateUTC
12:15 AM,42.8,37.4,81,30.12,10.0,Calm,Calm,-,N/A,,Clear,0,2014-03-22 04:15:00
12:35 AM,42.8,35.6,76,30.12,10.0,Calm,Calm,-,N/A,,Clear,0,2014-03-22 04:35:00
12:55 AM,42.8,37.4,81,30.12,10.0,Calm,Calm,-,N/A,,Clear,0,2014-03-22 04:55:00
1:15 AM,42.8,37.4,81,30.12,10.0,Calm,Calm,-,N/A,,Clear,0,2014-03-22 05:15:00
1:35 AM,42.8,37.4,81,30.11,10.0,SSW,3.5,-,N/A,,Clear,210,2014-03-22 05:35:00
1:55 AM,42.8,37.4,81,30.10,10.0,Calm,Calm,-,N/A,,Clear,0,2014-03-22 05:55:00
2:15 AM,44.6,37.4,76,30.10,10.0,Calm,Calm,-,N/A,,Clear,0,2014-03-22 06:15:00
2:35 AM,44.6,37.4,76,30.10,10.0,Calm,Calm,-,N/A,,Clear,0,2014-03-22 06:35:00
2:55 AM,42.8,37.4,81,30.08,10.0,Calm,Calm,-,N/A,,Clear,0,2014-03-22 06:55:00
3:15 AM,42.8,37.4,81,30.07,10.0,Calm,Calm,-,N/A,,Clear,0,2014-03-22 07:15:00
3:35 AM,42.8,37.4,81,30.07,10.0,Calm,Calm,-,N/A,,Clear,0,2014-03-22 07:35:00
3:55 AM,42.8,37.4,81,30.06,10.0,SSW,3.5,-,N/A,,Clear,210,2014-03-22 07:55:00
4:15 AM,44.6,39.2,81,30.07,10.0,SSW,4.6,-,N/A,,Clear,200,2014-03-22 08:15:00
4:35 AM,42.8,39.2,87,30.06,10.0,Calm,Calm,-,N/A,,Clear,0,2014-03-22 08:35:00
4:55 AM,44.6,39.2,81,30.07,10.0,SSW,3.5,-,N/A,,Clear,200,2014-03-22 08:55:00
5:15 AM,42.8,39.2,87,30.06,10.0,Calm,Calm,-,N/A,,Clear,0,2014-03-22 09:15:00
5:35 AM,42.8,39.2,87,30.07,10.0,Calm,Calm,-,N/A,,Clear,0,2014-03-22 09:35:00
5:55 AM,42.8,37.4,81,30.07,10.0,Calm,Calm,-,N/A,,Clear,0,2014-03-22 09:55:00
6:15 AM,42.8,37.4,81,30.07,10.0,Calm,Calm,-,N/A,,Clear,0,2014-03-22 10:15:00
6:35 AM,42.8,37.4,81,30.07,10.0,Calm,Calm,-,N/A,,Clear,0,2014-03-22 10:35:00
6:55 AM,42.8,37.4,81,30.07,10.0,Calm,Calm,-,N/A,,Clear,0,2014-03-22 10:55:00
7:15 AM,41.0,37.4,87,30.07,10.0,Calm,Calm,-,N/A,,Clear,0,2014-03-22 11:15:00
7:35 AM,41.0,37.4,87,30.08,10.0,Calm,Calm,-,N/A,,Clear,0,2014-03-22 11:35:00
7:55 AM,42.8,37.4,81,30.08,10.0,Calm,Calm,-,N/A,,Clear,0,2014-03-22 11:55:00
8:15 AM,44.6,42.8,93,30.08,10.0,Calm,Calm,-,N/A,,Clear,0,2014-03-22 12:15:00
8:35 AM,50.0,44.6,82,30.08,10.0,SSW,4.6,-,N/A,,Clear,200,2014-03-22 12:35:00
8:55 AM,53.6,46.4,77,30.09,10.0,SSW,4.6,-,N/A,,Clear,200,2014-03-22 12:55:00
9:15 AM,55.4,48.2,77,30.09,10.0,SSW,6.9,-,N/A,,Clear,210,2014-03-22 13:15:00
9:35 AM,59.0,50.0,72,30.09,10.0,SSW,8.1,-,N/A,,Clear,210,2014-03-22 13:35:00
9:55 AM,62.6,48.2,59,30.08,10.0,SSW,9.2,-,N/A,,Clear,210,2014-03-22 13:55:00
10:15 AM,64.4,46.4,52,30.09,10.0,SW,8.1,-,N/A,,Clear,220,2014-03-22 14:15:00
10:35 AM,66.2,44.6,46,30.08,10.0,SW,10.4,19.6,N/A,,Clear,220,2014-03-22 14:35:00
10:55 AM,69.8,48.2,46,30.08,10.0,SW,12.7,17.3,N/A,,Clear,220,2014-03-22 14:55:00
11:15 AM,69.8,46.4,43,30.07,10.0,SW,11.5,-,N/A,,Clear,220,2014-03-22 15:15:00
11:35 AM,71.6,48.2,43,30.07,10.0,SSW,17.3,25.3,N/A,,Clear,210,2014-03-22 15:35:00
11:55 AM,73.4,48.2,41,30.06,10.0,SW,17.3,25.3,N/A,,Clear,220,2014-03-22 15:55:00
12:15 PM,73.4,48.2,41,30.05,10.0,SW,12.7,24.2,N/A,,Clear,230,2014-03-22 16:15:00
12:35 PM,75.2,48.2,38,30.04,10.0,SW,19.6,25.3,N/A,,Clear,230,2014-03-22 16:35:00
12:55 PM,75.2,48.2,38,30.02,10.0,SW,19.6,23.0,N/A,,Scattered Clouds,220,2014-03-22 16:55:00
1:15 PM,75.2,46.4,36,30.02,10.0,WSW,15.0,20.7,N/A,,Partly Cloudy,240,2014-03-22 17:15:00
1:35 PM,75.2,44.6,34,30.01,10.0,WSW,17.3,24.2,N/A,,Scattered Clouds,240,2014-03-22 17:35:00
1:55 PM,75.2,44.6,34,30.00,10.0,WSW,11.5,19.6,N/A,,Mostly Cloudy,240,2014-03-22 17:55:00
2:15 PM,75.2,44.6,34,29.99,10.0,SW,10.4,20.7,N/A,,Mostly Cloudy,230,2014-03-22 18:15:00
2:35 PM,75.2,46.4,36,29.97,10.0,WSW,11.5,23.0,N/A,,Mostly Cloudy,240,2014-03-22 18:35:00
2:55 PM,77.0,46.4,34,29.97,10.0,SW,12.7,18.4,N/A,,Scattered Clouds,230,2014-03-22 18:55:00
3:15 PM,75.2,46.4,36,29.96,10.0,WSW,15.0,18.4,N/A,,Scattered Clouds,240,2014-03-22 19:15:00
3:35 PM,77.0,46.4,34,29.96,10.0,SSW,12.7,18.4,N/A,,Scattered Clouds,210,2014-03-22 19:35:00
3:55 PM,77.0,46.4,34,29.96,10.0,SW,9.2,17.3,N/A,,Partly Cloudy,220,2014-03-22 19:55:00
4:15 PM,77.0,46.4,34,29.96,10.0,SW,10.4,-,N/A,,Scattered Clouds,230,2014-03-22 20:15:00
4:35 PM,75.2,46.4,36,29.96,10.0,WSW,8.1,-,N/A,,Partly Cloudy,250,2014-03-22 20:35:00
4:55 PM,75.2,46.4,36,29.95,10.0,SW,10.4,18.4,N/A,,Clear,230,2014-03-22 20:55:00
5:15 PM,75.2,46.4,36,29.95,10.0,WSW,9.2,-,N/A,,Clear,240,2014-03-22 21:15:00
5:35 PM,75.2,44.6,34,29.95,10.0,SW,10.4,18.4,N/A,,Clear,230,2014-03-22 21:35:00
5:55 PM,75.2,44.6,34,29.96,10.0,WSW,6.9,-,N/A,,Partly Cloudy,240,2014-03-22 21:55:00
6:15 PM,73.4,46.4,38,29.96,10.0,WSW,3.5,-,N/A,,Mostly Cloudy,240,2014-03-22 22:15:00
6:35 PM,71.6,53.6,53,29.97,10.0,South,5.8,-,N/A,,Mostly Cloudy,190,2014-03-22 22:35:00
6:55 PM,71.6,57.2,60,29.98,10.0,South,9.2,-,N/A,,Mostly Cloudy,170,2014-03-22 22:55:00
7:15 PM,69.8,57.2,64,29.99,10.0,South,9.2,-,N/A,,Scattered Clouds,170,2014-03-22 23:15:00
7:35 PM,69.8,57.2,64,29.99,10.0,South,8.1,-,N/A,,Partly Cloudy,170,2014-03-22 23:35:00
7:55 PM,66.2,57.2,73,29.98,10.0,South,8.1,-,N/A,,Clear,170,2014-03-22 23:55:00
8:15 PM,64.4,57.2,77,29.99,10.0,South,6.9,-,N/A,,Clear,180,2014-03-23 00:15:00
8:35 PM,64.4,57.2,77,30.00,10.0,South,6.9,-,N/A,Thunderstorm,Clear,180,2014-03-23 00:35:00
8:55 PM,64.4,57.2,77,30.00,10.0,South,6.9,-,N/A,,Clear,180,2014-03-23 00:55:00
9:15 PM,64.4,57.2,77,30.01,10.0,South,10.4,-,N/A,,Clear,170,2014-03-23 01:15:00
9:35 PM,64.4,55.4,73,30.01,10.0,South,12.7,-,N/A,,Clear,170,2014-03-23 01:35:00
9:55 PM,62.6,55.4,77,30.01,10.0,South,11.5,-,N/A,Thunderstorm,Thunderstorm,170,2014-03-23 01:55:00
10:15 PM,62.6,55.4,77,30.01,10.0,South,11.5,-,N/A,,Clear,190,2014-03-23 02:15:00
10:35 PM,60.8,55.4,82,30.02,10.0,SSW,5.8,-,N/A,,Clear,210,2014-03-23 02:35:00
10:55 PM,60.8,55.4,82,30.02,10.0,SSW,8.1,-,N/A,,Clear,200,2014-03-23 02:55:00
11:15 PM,60.8,55.4,82,30.02,10.0,SSW,5.8,-,N/A,,Clear,210,2014-03-23 03:15:00
11:35 PM,60.8,55.4,82,30.02,10.0,SW,5.8,-,N/A,,Clear,220,2014-03-23 03:35:00
11:55 PM,59.0,55.4,88,30.01,10.0,SSW,5.8,-,N/A,,Clear,200,2014-03-23 03:55:00